Theta_e
328 328 331 335 334 335 336 336 338 338 338 339 340 339 339 339 340 340 340 340 339 339 338 338 338 338 336 336 336 337 336 337 337 336 336 335 335 336 335 334 333 334 335 335 335 336 336 335 334 334 334 334 336 337 336 335 336 337 335 335 339 341 341 343 344 344 343 343 342 341 342 342 342 343 343 343 345 345 344 344 343 341 341 341 344
321 325 329 332 332 333 334 335 336 337 338 338 339 339 339 339 339 339 339 340 340 340 339 339 339 339 339 339 338 339 339 338 338 338 338 337 337 337 337 335 334 333 335 337 337 337 337 337 337 336 335 334 335 336 336 335 334 337 338 335 336 339 340 342 342 343 344 343 342 341 342 342 342 342 341 342 344 346 345 344 343 342 340 340 343
320 325 327 328 327 329 331 333 334 335 336 336 338 338 338 338 338 338 338 338 339 339 339 339 339 339 339 339 340 340 340 340 339 339 339 338 338 337 337 336 336 335 335 336 336 337 337 338 338 338 337 336 336 336 336 336 335 334 336 336 334 336 339 341 341 341 343 343 342 341 341 341 342 340 340 342 344 346 346 344 343 343 340 340 343
320 323 324 325 324 327 329 331 333 333 334 335 335 335 335 336 337 337 337 337 337 338 338 338 338 338 338 338 339 339 339 339 339 339 339 339 339 338 338 337 336 337 337 336 336 337 337 338 337 338 338 337 337 336 336 335 334 332 333 334 333 334 336 339 340 340 341 343 342 341 341 341 341 338 340 343 345 346 346 344 344 343 340 341 343
316 319 321 322 323 326 328 328 329 329 330 331 331 331 332 334 335 335 336 336 336 337 337 337 337 338 337 337 338 338 338 338 338 339 339 339 339 339 338 338 337 337 337 337 337 337 337 337 337 337 337 337 337 337 336 334 333 331 330 330 331 333 335 336 338 340 341 342 343 342 341 340 340 338 341 344 345 346 345 345 344 342 340 342 343
314 316 318 320 321 324 325 326 326 327 327 327 328 328 328 330 332 333 334 334 334 335 335 335 335 336 336 337 337 336 337 337 337 337 338 338 339 338 339 339 338 338 338 338 338 338 337 337 337 337 337 337 337 337 337 336 335 332 330 329 330 330 333 336 336 337 340 342 343 342 341 341 340 339 341 344 345 346 345 345 344 342 340 342 343
310 314 315 317 318 319 321 323 324 324 324 325 325 325 326 326 328 330 330 331 332 333 333 334 334 335 335 335 335 335 335 336 336 336 337 337 337 337 338 338 338 338 338 339 339 338 338 338 337 337 337 337 337 338 338 338 338 336 332 330 332 330 331 336 336 335 337 341 343 342 341 341 340 340 342 344 345 346 345 344 344 342 340 342 343
306 310 311 312 313 315 317 318 320 321 321 321 321 322 323 323 324 325 326 327 328 329 330 332 333 333 334 334 334 334 334 335 334 334 335 335 336 336 336 337 337 337 337 338 338 339 338 337 337 336 336 336 337 338 339 339 339 339 337 333 332 329 330 335 336 334 335 338 342 342 341 341 341 341 342 343 345 345 345 345 344 342 341 343 344
301 303 305 306 307 309 311 313 315 317 317 317 317 318 319 320 320 321 322 323 324 325 326 327 328 329 330 330 330 331 332 333 333 332 332 333 333 334 335 335 336 336 336 336 337 338 338 338 337 337 336 336 336 337 337 338 339 339 339 338 334 329 326 332 336 335 334 336 339 342 342 341 341 341 342 343 344 345 345 345 344 342 342 344 344
298 298 298 299 300 302 304 306 308 310 311 311 311 312 313 314 315 316 316 317 319 320 321 322 323 324 324 325 325 326 327 328 329 330 331 331 331 332 333 333 334 334 335 335 336 336 337 337 337 338 337 337 336 336 337 338 338 338 338 339 339 335 328 327 333 336 334 333 336 340 342 342 341 341 341 343 343 345 345 345 344 343 343 344 344
297 297 296 296 296 297 298 299 301 302 303 303 303 303 304 305 307 308 309 310 312 314 316 318 319 320 320 320 321 321 322 323 324 326 327 328 329 330 330 331 331 332 333 334 335 335 336 336 336 337 338 337 337 336 336 336 337 336 337 337 339 339 336 330 328 332 335 334 333 338 342 342 342 341 341 342 343 344 345 345 344 343 343 343 344
297 296 296 296 296 296 296 297 297 297 298 298 298 298 299 299 300 300 301 303 304 306 309 311 313 315 315 316 317 318 319 321 321 322 324 325 326 327 328 329 329 329 330 331 332 333 335 335 335 336 337 337 336 336 335 335 336 336 336 336 337 338 339 337 331 328 333 335 334 335 339 342 341 341 341 342 342 343 345 345 344 342 343 343 343
296 295 295 296 296 296 296 296 296 296 296 296 296 296 296 297 297 297 297 298 299 300 301 303 304 306 308 309 311 313 315 317 319 320 321 322 323 324 325 326 326 326 327 328 329 329 331 333 334 335 336 336 336 336 336 335 335 335 335 335 335 336 337 338 336 331 329 331 334 334 336 339 341 341 341 342 342 342 344 345 344 342 342 343 343
297 295 295 295 295 296 295 296 295 296 296 296 296 296 296 296 296 296 296 296 296 297 297 298 298 299 300 301 303 305 307 311 313 315 317 318 320 322 323 324 324 325 325 326 327 327 328 329 331 332 334 334 335 334 334 335 334 334 334 334 334 334 335 337 338 337 332 328 329 333 334 336 339 341 341 342 341 341 344 345 344 343 342 343 343
297 295 294 295 295 295 295 295 295 295 295 295 295 295 295 295 295 295 295 295 295 296 296 296 296 296 296 297 297 298 300 301 304 306 309 312 314 317 319 320 322 323 324 324 325 325 326 327 328 328 329 331 333 333 333 334 335 334 333 334 334 334 335 336 337 338 338 333 327 329 332 334 336 340 340 341 341 340 342 344 344 343 342 343 343
297 296 294 294 294 294 295 295 295 295 295 295 295 295 295 295 295 295 295 295 295 295 295 295 295 295 295 296 296 296 296 297 298 298 300 302 304 308 311 313 315 318 319 320 322 323 323 324 326 326 326 327 329 331 333 333 333 334 334 333 333 333 334 335 336 336 338 338 333 328 329 330 333 338 340 340 341 340 341 342 343 344 343 343 343
296 296 294 294 294 294 294 294 294 294 295 295 295 295 295 295 295 295 295 294 295 294 294 295 295 295 295 295 295 295 295 295 296 296 296 297 297 299 301 303 305 307 310 313 316 319 321 322 323 324 324 324 326 328 330 332 333 333 334 334 332 331 332 334 336 336 336 337 338 333 328 326 329 336 339 340 341 340 340 341 341 342 344 343 343
295 295 294 294 294 294 294 294 294 294 294 294 294 294 294 294 294 294 294 294 294 294 294 294 294 294 294 295 295 295 295 295 295 295 295 295 296 296 296 297 298 298 300 302 305 309 314 319 320 322 322 322 323 326 328 330 332 332 333 334 333 331 331 332 334 335 335 335 337 337 334 326 324 331 337 339 340 340 339 339 341 341 343 343 343
294 294 294 294 294 293 293 294 294 294 294 294 294 294 294 294 294 294 294 294 294 294 294 294 294 294 294 294 294 294 295 295 295 295 295 295 295 295 295 295 296 296 296 297 297 299 303 308 314 317 318 319 321 323 326 328 329 330 330 332 334 333 331 330 332 333 334 334 334 336 337 333 326 326 334 338 339 341 339 338 340 340 342 343 342
293 294 294 293 294 293 293 294 294 294 294 294 294 294 294 294 294 294 294 294 294 294 294 294 294 294 294 294 294 294 294 294 294 294 294 294 294 294 294 294 295 295 295 296 296 296 296 299 303 308 311 314 316 319 322 325 326 328 328 330 332 333 332 331 331 332 332 333 334 333 335 336 332 327 330 335 337 340 340 339 340 340 341 342 342
293 293 293 293 293 293 293 293 293 293 294 293 294 294 294 294 294 294 294 294 294 294 294 294 294 294 294 294 294 294 294 294 294 294 294 294 294 294 294 294 294 294 295 295 295 295 295 295 296 299 302 305 309 313 318 321 324 325 327 328 329 332 333 332 332 331 331 332 333 333 333 334 335 333 330 333 336 337 339 339 340 341 340 340 342
293 293 293 293 293 293 293 293 293 293 293 294 294 294 294 294 294 294 294 294 294 294 294 294 294 294 294 293 293 293 293 293 293 293 293 293 293 293 293 293 293 294 294 294 295 295 295 295 295 295 297 299 303 308 312 316 319 323 325 326 327 329 330 331 332 332 331 331 332 332 332 332 334 336 334 333 334 335 337 338 340 341 339 339 341
293 293 293 293 293 293 293 293 293 293 293 293 293 294 294 294 294 294 294 294 294 294 294 294 294 294 294 294 294 293 293 293 292 292 292 292 292 293 293 293 293 293 293 293 294 294 295 295 295 295 295 296 298 301 305 309 313 318 322 324 325 326 327 329 332 332 331 331 331 332 331 330 331 334 336 335 333 333 336 337 338 340 341 339 340
293 293 293 292 292 292 293 293 293 293 293 293 293 293 294 294 294 294 294 294 294 294 294 294 294 294 293 293 293 293 293 293 293 293 293 293 293 292 292 292 292 293 293 293 293 293 294 294 295 295 295 295 295 297 299 302 305 310 316 321 324 326 326 328 330 331 331 331 331 332 331 330 329 331 334 336 334 333 334 337 338 339 341 340 339
292 292 292 292 292 292 292 292 292 293 293 293 293 293 293 293 293 294 293 294 294 294 293 293 293 293 293 293 293 293 293 293 293 293 293 293 293 293 293 293 292 292 292 293 293 293 293 294 294 294 294 294 294 295 296 297 300 303 308 314 320 325 327 328 330 330 331 331 331 331 331 330 328 329 330 333 335 335 333 335 337 339 340 339 339
292 292 292 292 292 292 292 292 292 292 292 292 293 293 293 293 293 293 293 293 293 293 293 293 293 293 292 292 292 292 292 292 292 292 292 292 293 293 293 293 292 292 292 292 293 293 294 294 294 294 294 294 294 295 295 295 297 298 300 304 311 319 326 327 328 330 330 330 331 331 331 330 328 328 329 330 332 335 335 333 336 338 339 339 339
292 292 292 292 291 291 292 292 292 292 292 292 292 292 292 292 291 291 292 292 292 292 292 292 292 292 292 292 291 291 291 291 291 291 291 291 291 292 292 292 292 292 292 292 292 293 294 294 294 294 294 294 294 295 295 295 296 296 297 298 301 309 319 326 328 328 329 329 330 330 331 331 329 328 329 330 330 332 335 334 335 337 338 339 339
292 292 291 291 291 291 291 291 291 291 291 291 291 291 291 291 291 291 291 291 291 291 291 292 292 291 291 290 290 290 290 290 290 290 290 290 290 290 290 291 291 291 291 291 291 292 293 294 294 294 295 295 295 295 296 296 295 295 296 297 298 300 307 318 327 329 329 329 329 329 330 331 330 329 329 330 330 329 331 334 335 336 337 338 338
292 292 291 291 291 291 291 291 291 290 291 291 291 291 291 291 290 290 290 290 290 290 290 290 290 290 290 290 289 289 288 288 288 288 289 289 289 289 289 289 289 290 290 291 291 291 292 293 293 294 294 295 296 296 296 296 296 295 296 297 297 298 300 307 317 324 327 328 328 328 329 330 330 330 329 329 330 329 328 331 335 336 336 337 338
292 292 291 291 291 291 291 291 290 290 290 290 291 290 290 290 289 289 289 289 289 289 289 289 289 289 288 288 288 287 287 287 287 287 288 288 288 288 288 288 288 289 289 290 291 291 292 292 293 293 294 295 296 297 297 297 296 296 296 297 297 298 299 301 307 314 321 326 327 327 328 328 329 330 329 328 329 330 329 328 332 336 335 335 338
291 291 291 291 291 291 291 290 290 290 290 290 290 290 289 289 289 288 288 288 288 288 288 288 288 288 287 287 287 286 287 286 286 286 286 286 287 287 287 287 287 287 288 289 290 291 291 292 292 293 294 294 295 296 297 297 297 296 297 297 298 299 299 301 305 309 316 322 326 327 327 328 328 329 330 329 329 329 330 329 329 334 336 335 336
291 291 291 291 291 290 290 289 289 289 289 289 289 289 288 288 288 288 288 288 287 287 287 287 287 287 287 286 286 286 286 286 286 286 285 285 285 286 286 286 286 286 287 288 288 289 290 291 292 292 293 294 295 295 296 297 297 297 297 297 298 299 300 301 304 307 311 317 323 327 326 327 328 328 329 329 329 329 329 329 328 330 335 335 335
291 291 291 291 291 290 289 289 289 289 288 288 288 288 288 288 287 287 287 287 286 286 286 286 286 287 286 286 286 286 286 286 285 285 285 285 285 285 285 285 285 285 286 286 286 287 289 291 292 293 293 293 294 295 296 296 297 297 298 298 298 299 299 301 302 304 308 312 319 325 326 327 327 328 329 329 329 329 329 329 328 328 332 334 334
291 291 290 290 290 289 289 289 288 288 288 288 287 287 287 287 287 286 286 285 285 285 285 286 286 286 286 286 286 286 286 286 285 285 285 285 285 285 285 285 285 284 285 285 285 285 287 289 291 292 293 294 295 295 296 296 297 297 297 298 298 298 298 299 299 300 303 308 315 321 325 327 328 328 328 329 329 329 329 329 328 327 330 332 333
291 290 290 290 290 289 288 288 288 288 287 287 287 287 287 286 286 285 285 285 285 285 285 286 286 287 287 287 286 286 285 285 284 284 284 284 284 284 284 284 284 284 284 284 284 285 286 287 289 290 292 293 294 295 296 296 296 297 297 298 298 298 297 297 298 299 299 303 310 316 321 325 326 327 327 328 329 329 329 329 329 327 328 331 332
291 290 290 290 289 288 288 288 288 287 287 287 287 287 286 286 286 285 285 285 285 285 285 286 287 287 286 285 285 284 284 284 284 283 284 284 284 284 284 284 284 283 283 283 283 284 285 286 287 289 291 292 294 294 295 296 296 296 297 297 297 297 297 296 297 298 299 300 305 311 318 323 325 326 327 328 328 328 329 329 328 328 327 328 331
290 290 290 289 289 288 288 288 287 287 287 286 286 286 286 285 285 285 285 285 284 284 284 286 287 286 285 284 283 283 283 283 283 283 283 284 284 284 285 285 284 283 282 282 282 283 283 284 286 287 289 291 292 294 295 295 296 296 297 297 297 297 297 296 297 297 299 300 302 305 312 320 325 326 327 328 328 328 329 328 328 328 327 326 327
290 290 290 289 288 288 288 287 287 287 286 286 286 286 285 285 285 285 285 284 284 284 284 285 286 285 284 283 283 283 283 283 283 283 284 284 284 284 285 285 284 283 282 282 282 282 283 284 284 285 286 288 290 292 293 295 295 296 297 297 297 297 296 296 297 297 299 300 301 301 306 315 323 326 327 327 328 328 329 328 328 327 327 326 326
290 290 289 289 288 288 287 287 287 286 286 285 285 285 285 285 285 285 285 285 284 284 284 285 286 285 284 283 283 283 283 283 283 283 283 283 283 283 283 283 282 281 281 281 282 282 282 283 282 283 284 285 287 289 291 294 295 296 296 297 297 297 296 296 297 297 298 299 301 301 303 310 319 324 326 327 328 328 328 328 328 328 327 327 326
290 290 289 289 288 288 287 287 287 286 286 285 285 285 285 285 285 285 285 285 285 284 285 285 285 284 284 283 283 283 283 283 283 282 282 282 282 281 281 281 281 280 280 281 282 282 282 282 281 282 283 284 285 287 289 293 295 296 296 297 297 297 296 296 297 297 298 299 301 303 304 308 316 322 325 326 327 328 328 328 328 328 327 327 327
290 290 289 288 288 288 288 287 287 286 286 285 284 284 284 284 284 283 284 285 285 284 286 286 286 285 285 284 284 283 283 282 282 282 281 281 281 280 280 280 280 280 280 281 281 281 281 281 281 281 282 283 284 286 288 291 294 295 296 296 296 296 296 296 297 297 298 298 299 303 306 309 313 320 324 325 326 327 328 328 328 327 327 327 327
290 290 289 288 288 288 288 287 287 286 285 285 284 283 283 283 283 282 282 284 284 284 285 286 285 285 285 284 283 283 282 281 281 280 280 280 280 280 279 279 280 280 280 280 280 280 280 280 280 280 281 282 284 286 288 291 293 294 295 295 296 296 296 296 297 297 297 298 298 301 305 310 314 318 322 325 326 327 327 327 328 328 327 327 327
290 289 289 288 288 288 287 287 286 286 285 284 284 283 283 282 282 282 282 283 283 283 283 284 283 282 282 282 281 281 280 280 279 279 279 279 279 279 279 279 279 279 279 279 279 279 280 280 280 280 280 282 284 286 287 289 292 294 295 295 296 296 297 296 296 297 298 300 301 302 305 309 312 316 320 324 326 327 327 327 328 328 327 327 327
290 289 289 288 288 288 287 287 286 286 285 284 284 283 283 282 282 282 282 282 283 282 282 282 281 280 280 280 280 280 279 279 279 279 279 279 279 279 279 279 279 279 279 279 279 279 279 279 279 280 281 282 283 284 285 287 290 293 295 296 296 296 296 296 296 297 298 299 300 303 308 311 313 316 319 323 325 326 327 327 327 328 328 327 327
289 289 289 289 288 288 287 287 286 285 285 284 283 283 282 282 282 282 283 282 282 282 281 281 281 280 280 280 280 279 279 278 278 278 278 278 278 278 278 278 278 278 278 278 278 278 278 279 279 279 280 281 281 282 283 284 287 289 293 295 296 296 296 296 297 297 296 297 297 300 303 306 311 317 321 323 324 326 327 327 327 327 327 327 327
290 289 289 289 288 288 287 286 286 285 285 284 283 283 282 282 281 281 281 281 281 281 281 280 280 280 280 280 280 279 279 278 278 278 278 278 278 278 278 278 278 278 278 278 278 278 278 278 278 279 279 279 280 281 282 283 285 286 290 293 295 296 296 296 297 296 296 297 297 298 299 300 305 313 320 324 324 325 326 326 326 327 327 327 328
290 289 289 289 288 288 287 286 286 285 284 284 283 282 282 281 281 280 280 280 279 280 279 279 279 279 279 279 278 278 278 277 277 277 278 278 277 277 277 277 277 277 277 277 277 277 277 278 278 278 278 279 279 280 281 282 284 286 289 292 294 296 296 296 297 297 297 297 297 298 299 299 302 306 311 319 324 325 326 326 326 326 327 327 327
290 289 289 289 288 288 287 286 285 285 284 284 283 282 282 281 280 280 280 279 279 279 279 278 278 278 278 278 278 277 277 277 277 277 277 277 277 277 277 277 277 277 277 277 277 277 277 277 277 277 278 278 279 279 280 281 283 286 287 289 292 294 296 297 297 298 298 298 298 298 298 298 300 301 304 309 317 323 326 326 326 326 326 327 327
290 289 289 289 288 287 287 286 285 285 284 283 283 282 281 280 280 280 279 279 279 278 278 278 278 277 277 277 277 277 277 276 276 277 277 277 277 277 277 277 277 277 276 276 276 276 276 276 276 277 277 277 278 278 278 280 282 283 284 286 289 292 295 296 297 298 298 299 298 298 298 298 299 300 302 304 309 318 324 326 326 326 325 326 327
289 289 289 288 288 287 287 286 285 284 284 283 282 282 281 280 280 279 279 278 278 278 278 278 277 277 277 277 276 276 276 276 276 276 276 276 276 276 276 276 276 276 276 276 276 276 276 276 275 276 276 276 276 276 277 278 280 281 282 285 289 292 293 295 296 297 298 298 298 298 298 298 299 300 301 304 306 312 320 325 326 326 326 325 326
289 289 288 288 288 287 287 286 285 284 283 283 282 281 281 280 279 279 278 278 278 277 277 277 277 276 276 276 276 276 276 276 276 276 276 276 275 276 276 276 276 276 275 275 275 275 275 275 275 275 275 275 275 276 277 277 278 279 281 285 289 291 293 294 295 296 297 298 298 298 298 298 299 300 301 302 303 306 314 322 325 326 326 326 326
Wind_Speed
18 23 19 13 13 18 19 15 11 6 3 4 4 3 4 4 4 5 5 4 4 4 4 5 5 6 6 6 6 6 6 5 6 7 7 9 9 9 11 13 15 14 14 14 14 14 14 13 12 12 11 11 11 11 11 11 9 10 10 9 9 10 10 10 11 10 9 9 10 10 9 9 8 7 7 8 8 9 11 12 12 12 13 14 15
17 21 19 13 12 16 17 15 14 11 7 5 6 5 5 5 5 6 6 6 6 6 5 5 6 7 7 7 6 6 6 6 7 8 8 9 9 8 10 12 14 15 15 14 14 14 14 14 13 12 12 12 12 12 12 12 11 11 11 10 9 10 11 11 11 11 11 10 11 11 10 10 9 8 8 10 10 11 13 13 14 14 14 14 17
15 16 15 13 12 15 15 15 15 13 12 9 8 7 7 7 6 7 7 6 7 8 7 7 7 8 8 9 8 8 8 8 8 9 10 11 11 10 11 12 13 13 14 14 14 14 14 14 14 13 13 14 13 13 13 13 13 13 13 12 11 10 11 12 12 11 12 12 12 12 12 11 10 10 9 10 12 13 15 15 15 15 15 15 17
15 14 13 13 15 16 15 14 14 14 13 11 10 9 10 10 9 9 9 8 8 8 9 8 8 8 9 11 11 11 11 11 11 11 11 11 12 12 12 12 12 12 12 13 13 14 14 14 14 14 14 15 14 15 15 15 14 14 14 14 13 11 12 12 12 12 12 13 13 13 13 12 11 10 9 11 12 13 15 16 16 16 15 16 18
16 16 15 14 17 19 18 15 14 15 15 14 13 12 11 10 10 10 11 11 10 9 9 9 8 8 9 11 12 12 12 14 13 13 13 13 12 12 13 13 13 13 13 13 14 14 14 14 14 15 15 15 15 16 17 18 17 16 15 15 15 13 13 12 13 13 13 13 14 15 14 13 12 11 10 11 12 14 16 16 18 17 16 18 19
17 16 16 16 18 20 21 19 18 17 17 17 16 15 13 11 11 11 12 12 13 12 11 11 10 9 9 11 11 11 13 14 14 14 15 15 15 14 14 14 14 14 14 14 14 14 14 14 14 15 15 15 15 16 18 18 18 17 16 16 16 15 13 13 14 13 14 14 15 16 15 14 13 12 11 12 13 14 16 16 18 18 17 19 20
16 16 16 17 18 19 19 20 21 20 19 19 18 18 16 15 13 13 13 12 13 13 13 13 13 13 12 12 12 12 13 13 13 13 14 16 16 16 16 15 15 15 15 15 15 15 15 15 15 15 15 15 15 16 16 17 18 18 16 15 16 16 14 14 16 14 14 14 16 16 16 16 14 13 12 13 14 15 16 17 18 18 19 21 21
18 17 17 18 19 19 18 19 20 20 20 19 19 19 18 17 16 15 14 14 13 13 13 12 12 13 12 12 12 13 13 13 13 13 14 14 15 16 17 17 17 17 18 17 16 15 16 16 16 16 16 16 16 16 16 16 17 17 17 16 16 17 15 15 17 16 15 15 17 18 17 16 15 14 14 15 15 16 17 18 18 19 20 21 22
20 20 20 20 20 19 19 19 19 20 20 20 19 18 18 18 17 17 16 15 15 14 14 12 12 13 12 11 11 12 12 12 13 14 14 15 15 15 16 17 18 19 19 19 19 17 17 17 17 17 17 17 17 17 18 18 18 17 17 17 17 17 17 17 17 17 17 16 17 19 19 17 17 16 16 17 17 17 18 19 19 20 20 22 23
22 22 22 22 22 20 20 20 20 20 20 20 19 19 18 18 17 17 16 16 15 15 14 14 14 13 13 12 12 13 12 12 13 14 14 15 15 15 15 16 17 18 19 20 20 20 19 19 18 18 18 18 18 18 18 20 20 18 17 18 18 17 17 17 18 19 19 18 18 19 21 19 19 19 17 18 18 18 19 20 21 21 22 23 23
21 22 22 23 22 21 21 21 20 20 20 20 20 20 19 18 18 17 17 16 16 15 14 14 14 13 13 13 13 14 14 14 13 13 13 14 15 15 15 15 16 17 18 18 19 20 21 21 20 19 19 19 19 19 19 20 21 21 20 20 19 18 18 17 18 20 20 20 19 19 21 21 21 21 19 19 20 20 20 21 22 24 23 24 23
20 21 21 22 22 22 22 21 21 20 20 20 20 19 19 19 18 18 18 17 17 16 15 14 14 14 13 13 13 13 14 14 14 14 14 14 14 15 15 15 16 17 17 18 19 20 20 21 20 20 20 21 21 21 21 21 22 22 22 21 20 20 20 19 19 20 22 22 21 20 21 22 23 23 21 20 22 21 21 22 24 25 25 25 24
20 20 21 21 22 22 22 21 21 21 20 21 20 20 19 19 18 18 18 17 17 16 16 16 15 15 14 13 13 13 13 13 14 14 14 14 14 14 15 15 16 17 17 18 19 21 21 21 21 21 21 21 22 22 21 22 23 23 23 22 22 21 21 22 21 21 22 24 24 22 21 23 24 24 24 22 23 24 23 23 25 27 26 26 26
19 20 20 21 21 21 21 21 21 21 20 20 20 20 20 20 19 19 18 18 17 17 16 16 16 16 16 15 14 14 13 13 13 14 14 14 14 14 13 13 14 15 17 18 18 20 21 22 22 22 22 21 22 22 22 23 24 23 23 24 24 23 22 22 22 23 23 24 26 25 23 24 25 25 26 25 25 25 25 24 26 28 28 27 26
18 19 20 20 20 20 20 20 20 20 19 20 20 20 20 20 20 20 19 19 18 18 17 17 17 17 17 16 16 15 15 15 15 15 15 15 15 15 15 14 14 14 16 17 18 18 19 21 22 23 23 23 22 22 23 24 25 24 25 25 24 24 23 22 23 24 25 25 26 27 27 26 26 26 27 28 27 27 27 26 27 28 29 27 26
17 17 19 20 20 20 20 20 19 19 19 19 19 19 19 19 19 19 19 20 19 19 18 18 17 17 17 17 17 16 16 16 16 17 17 16 17 17 17 17 17 17 17 18 19 20 20 21 22 23 24 24 24 24 23 24 25 26 27 26 25 25 25 24 23 25 26 26 26 27 29 29 28 27 28 30 29 29 29 28 28 28 28 27 27
16 16 18 19 19 20 20 19 19 18 18 18 18 19 19 19 19 19 19 19 20 20 20 19 19 18 18 18 18 18 17 17 18 18 18 18 18 19 18 18 19 20 20 20 20 20 20 21 21 23 24 24 25 25 24 24 25 26 27 27 27 27 26 26 25 26 26 27 27 28 29 30 30 28 29 31 31 31 29 28 28 29 29 28 27
16 16 17 18 18 19 19 19 19 18 18 18 18 18 19 19 19 19 19 19 20 20 20 20 20 20 20 19 19 19 19 19 19 19 19 20 20 20 20 20 21 21 21 22 22 22 21 22 22 23 24 24 25 25 25 26 26 27 27 28 28 28 28 28 28 28 28 28 28 29 30 31 31 30 30 32 33 32 31 29 29 30 30 30 29
16 16 16 17 17 18 18 19 18 18 18 18 18 18 19 18 19 19 19 19 20 20 20 20 20 21 21 21 21 20 20 20 20 21 21 21 21 21 21 21 22 22 23 23 23 23 22 23 23 24 25 25 25 25 25 27 27 28 28 28 29 29 29 30 31 31 31 30 29 29 31 31 31 32 31 33 35 34 32 31 31 32 31 31 31
15 15 16 16 16 16 17 18 17 18 18 18 18 18 18 18 18 19 19 19 20 20 21 21 21 21 22 22 22 22 23 23 23 23 23 23 23 23 23 23 23 23 24 24 24 24 24 23 23 24 25 25 25 25 26 27 29 29 28 28 29 31 31 31 33 33 33 32 31 30 32 33 32 32 32 33 35 37 36 34 32 33 33 33 32
15 15 15 14 14 15 16 16 16 17 17 17 17 17 18 18 18 18 19 19 20 21 21 22 23 23 23 24 24 25 25 25 25 25 25 25 25 25 25 25 25 25 25 25 25 25 25 24 24 24 25 25 26 26 26 27 28 29 29 29 29 31 32 33 34 35 36 35 34 33 33 34 33 33 33 34 35 37 39 37 34 33 34 34 34
13 13 14 13 13 14 15 15 15 16 16 16 16 17 17 17 17 18 18 19 20 21 22 23 23 24 24 25 26 27 27 28 28 27 27 26 26 26 26 26 27 27 27 27 26 26 26 26 26 26 26 26 26 26 27 27 26 27 28 29 30 32 33 35 35 36 37 37 36 36 34 35 35 34 34 35 35 36 39 40 38 34 34 35 36
12 13 13 13 13 13 14 14 15 15 15 15 16 16 16 17 17 17 18 19 20 21 22 23 23 24 24 25 26 27 27 28 29 29 29 28 28 28 28 28 28 28 29 29 28 27 27 27 27 27 27 27 27 27 26 27 27 26 26 28 30 32 33 34 35 36 37 38 38 38 37 36 37 36 34 36 37 37 38 40 41 36 34 36 37
12 12 11 12 12 12 13 13 14 14 15 15 15 16 16 17 17 18 18 19 20 21 22 23 23 24 24 25 25 26 27 27 28 28 28 29 29 30 30 30 30 30 30 31 31 30 30 29 28 28 29 28 28 27 27 27 27 26 26 27 29 31 32 33 35 37 37 38 39 39 39 39 39 39 37 37 37 38 38 40 43 39 36 36 37
10 10 10 10 11 11 11 12 12 13 13 14 15 16 16 16 17 18 18 19 20 21 22 23 24 24 25 26 26 26 27 27 27 28 28 28 29 30 31 32 32 32 32 31 31 31 31 31 31 31 30 30 30 29 29 28 28 28 27 26 27 30 32 33 35 36 37 38 39 40 40 41 41 41 40 39 38 38 39 40 43 42 38 36 38
9 8 8 9 9 9 9 9 10 11 12 13 14 14 15 15 17 17 18 19 20 21 22 22 23 25 25 26 26 27 27 27 28 28 28 29 29 30 31 31 32 33 33 33 32 31 31 31 33 33 32 31 31 30 30 29 29 29 29 28 27 28 31 33 34 35 37 39 41 41 41 43 44 44 42 41 40 39 39 41 43 44 43 38 39
9 7 7 7 7 7 7 7 8 9 10 11 11 12 13 14 16 17 18 19 20 20 21 22 23 23 24 24 25 26 27 27 27 27 27 27 28 28 30 31 32 32 33 33 34 32 31 31 32 32 32 32 32 32 31 31 31 31 31 31 30 29 30 33 36 37 38 39 41 41 42 43 45 45 44 42 42 42 40 41 43 45 47 43 40
8 6 6 6 6 6 6 6 7 8 8 9 10 11 12 13 15 16 17 18 18 19 20 21 21 22 22 22 22 22 23 24 24 25 26 26 26 26 27 28 29 31 31 31 33 34 33 33 32 32 31 31 32 33 33 33 33 33 34 33 33 32 31 32 35 37 38 39 41 42 43 44 45 46 46 44 43 44 43 42 43 45 48 47 43
8 7 5 5 4 4 4 4 5 6 7 8 9 10 12 13 14 15 15 16 16 17 18 19 19 20 20 20 21 21 22 22 22 23 23 24 24 25 25 26 26 27 28 28 29 32 34 34 34 33 32 32 31 32 33 35 36 35 34 34 35 34 33 33 34 36 36 38 40 43 44 44 46 46 48 47 44 45 45 44 43 45 48 48 47
8 7 5 4 3 3 3 3 5 6 7 8 9 10 11 12 12 12 13 14 15 16 17 17 18 18 19 20 21 21 22 22 22 22 23 24 25 26 26 26 26 25 25 26 26 28 32 34 35 35 34 34 33 32 31 34 36 36 35 35 36 35 35 35 35 36 37 40 41 43 44 45 47 47 49 50 48 45 44 45 45 45 47 49 50
8 7 6 3 2 2 2 3 4 5 6 7 8 8 9 10 10 10 11 13 14 15 16 16 17 18 20 21 21 22 23 23 23 23 24 25 26 27 28 28 27 26 25 25 26 27 29 31 33 34 35 34 34 34 32 33 34 35 35 35 36 35 36 35 35 36 37 39 41 42 44 45 47 49 49 51 51 48 45 45 46 45 46 49 51
9 7 6 3 3 2 2 2 3 5 5 7 7 7 7 9 9 10 11 13 13 14 15 16 18 20 21 21 23 25 25 24 25 25 25 25 25 27 27 27 27 27 26 27 27 27 28 29 29 31 34 35 35 34 33 33 34 34 34 35 36 35 36 35 35 37 37 38 40 42 44 45 47 49 50 51 52 51 47 46 48 47 45 47 49
10 8 5 4 3 2 2 2 3 4 5 5 6 6 7 9 10 10 11 12 12 13 14 16 19 20 21 23 25 26 26 25 25 25 25 25 26 27 27 27 26 27 28 29 29 28 28 29 29 30 31 33 36 35 33 33 34 34 33 34 35 36 36 35 36 37 37 39 40 41 43 44 46 48 50 52 53 53 50 48 49 49 45 47 49
10 8 6 5 4 3 2 2 3 3 4 5 6 7 8 9 10 10 10 11 12 13 14 17 19 21 23 24 26 27 26 26 25 25 26 26 27 28 28 28 29 30 30 30 29 28 27 29 29 30 31 31 33 35 34 35 35 34 34 33 34 36 36 37 38 38 38 39 39 40 42 43 45 47 48 50 52 53 53 51 51 51 46 46 49
11 9 7 5 5 3 3 3 3 3 4 5 7 8 9 9 10 10 10 11 13 14 15 17 20 22 24 25 26 26 26 25 25 25 26 27 27 28 28 29 30 31 31 30 29 28 28 28 28 29 32 32 32 33 33 35 37 35 35 34 35 36 36 38 39 39 40 40 40 40 42 44 45 46 48 49 50 52 53 52 52 53 49 46 48
12 10 7 6 5 4 3 3 3 3 5 6 8 9 9 9 10 11 11 12 14 15 15 18 22 23 24 24 25 25 24 24 25 25 26 27 27 28 30 30 31 30 30 29 27 26 26 28 28 28 31 33 33 34 33 34 36 37 37 36 36 36 36 38 40 40 41 40 41 41 41 44 46 47 48 48 49 50 50 51 52 53 53 50 49
12 10 8 6 5 4 3 2 3 4 5 6 8 9 9 10 11 12 12 13 15 15 15 19 22 23 23 23 23 24 24 24 25 26 27 28 29 30 31 32 32 31 30 29 27 26 25 26 28 26 27 32 33 34 35 33 34 37 38 37 37 37 37 38 39 40 40 40 42 42 42 43 46 47 48 48 49 50 49 49 50 51 53 54 52
12 11 7 5 4 3 2 2 3 4 5 6 8 9 10 11 12 13 13 14 16 15 16 20 23 22 22 23 24 25 25 26 28 28 29 30 30 31 32 32 32 31 30 29 28 27 25 24 28 29 28 30 32 34 34 34 35 36 37 39 39 38 38 39 39 40 40 41 42 44 43 43 44 46 47 48 49 50 49 48 47 48 51 53 53
13 11 8 5 3 3 2 2 3 4 5 6 8 9 11 12 12 14 15 16 17 16 17 21 22 22 22 23 25 26 27 28 29 30 30 30 30 30 31 31 30 30 29 28 27 26 25 26 29 32 33 32 32 33 34 34 35 37 37 39 40 40 41 39 39 40 41 42 43 44 45 43 44 46 47 48 49 49 48 47 46 46 48 50 51
15 12 9 6 4 2 2 2 3 4 5 7 9 10 12 13 13 14 16 17 18 17 19 22 22 22 22 24 26 27 27 29 30 30 29 29 29 28 29 29 28 27 27 26 26 25 27 29 30 31 33 35 34 32 31 33 34 36 38 38 39 39 40 40 40 40 40 41 43 43 44 44 44 45 47 49 49 49 49 48 47 46 47 48 48
17 14 11 7 4 2 1 2 3 4 6 7 8 10 11 12 13 14 17 19 18 19 21 22 22 23 24 25 27 28 28 29 30 30 29 28 27 27 27 27 27 26 26 26 26 28 28 30 30 30 30 33 35 31 28 30 30 27 27 31 36 38 38 38 39 40 40 41 43 43 43 43 44 45 46 48 49 49 49 48 47 46 46 46 45
19 16 12 8 4 1 1 2 3 4 5 6 8 9 10 11 12 13 16 18 18 18 20 21 22 22 24 25 26 26 27 28 29 28 27 26 26 27 27 28 28 28 29 29 29 30 30 30 30 31 30 30 33 32 27 25 22 20 18 18 23 30 34 36 37 38 39 40 41 42 43 42 43 44 46 47 48 49 49 48 46 46 47 46 45
19 17 13 9 5 2 1 2 3 4 5 6 7 9 10 11 12 14 15 17 17 17 19 21 20 21 23 24 24 25 26 27 28 27 26 26 26 28 29 29 29 29 30 33 32 31 30 30 30 31 31 31 30 30 27 23 22 22 18 13 11 14 20 23 26 29 30 33 37 39 41 43 44 45 45 46 46 46 48 48 46 46 46 46 46
19 17 14 10 7 3 2 2 3 4 5 6 8 9 11 12 13 15 16 16 17 17 18 20 19 20 23 23 24 25 26 27 27 26 25 26 26 28 29 29 29 28 28 31 33 32 30 30 30 29 29 28 29 30 28 26 26 23 13 8 8 8 11 11 11 19 25 29 34 33 33 37 41 44 45 45 45 45 46 48 48 47 46 46 46
21 17 14 11 8 5 3 3 4 5 5 6 8 10 12 13 15 18 19 19 20 20 21 22 23 23 25 25 25 26 27 28 28 27 27 27 27 28 29 30 30 29 28 29 31 33 32 31 29 29 28 28 30 33 32 28 28 28 20 12 8 6 9 8 7 17 24 24 29 31 32 35 36 39 43 44 45 46 47 47 47 48 47 46 45
21 17 14 12 9 6 4 4 5 5 6 7 8 11 12 14 16 18 19 19 20 21 21 23 26 27 27 28 28 28 29 29 29 29 29 29 29 29 30 31 32 30 29 30 32 33 33 31 29 29 31 30 30 31 32 30 29 33 32 27 24 18 13 9 6 12 19 21 25 30 34 36 33 33 36 42 45 46 46 46 46 47 47 46 45
20 16 15 13 10 7 5 5 6 6 7 8 9 11 13 14 15 16 16 16 17 19 20 22 25 26 27 28 28 28 28 29 29 29 30 30 30 31 31 31 32 32 31 31 33 34 34 33 32 32 33 33 31 30 31 31 29 29 31 32 35 35 28 19 10 9 13 17 22 25 31 33 31 31 32 34 42 45 45 46 47 46 46 47 46
20 18 16 14 11 8 6 6 6 7 8 9 10 12 13 14 15 15 17 17 17 20 22 23 24 25 27 28 29 29 29 29 29 30 32 32 32 32 31 31 32 33 32 32 33 34 35 36 34 34 34 34 32 31 32 32 28 26 26 28 32 35 34 31 24 16 9 11 17 19 25 32 32 32 31 30 34 42 45 44 46 47 45 45 46
21 19 17 14 12 9 7 7 6 7 8 9 11 12 13 14 15 15 17 18 19 21 23 25 26 25 27 29 29 30 31 30 31 31 32 32 32 33 33 32 32 34 33 33 35 35 36 37 36 35 35 36 34 33 35 36 32 29 27 27 30 31 31 31 30 23 13 10 13 13 17 25 27 30 32 29 31 38 45 46 46 48 48 46 45
21 19 17 15 13 10 8 8 7 7 8 10 11 13 13 14 15 16 18 19 20 22 24 26 27 27 28 30 30 31 33 34 34 33 33 32 32 32 33 33 33 34 35 35 36 36 36 36 37 37 36 38 38 36 37 37 36 35 32 28 26 23 20 19 19 18 13 10 11 12 12 13 16 24 33 31 28 34 40 46 46 47 49 49 48
22 20 19 17 14 11 9 9 7 6 8 10 12 13 14 14 16 17 18 20 21 23 24 27 28 28 29 31 32 33 35 37 37 36 36 34 33 33 34 35 35 36 36 37 37 38 38 38 37 38 38 38 38 37 37 39 39 38 36 33 29 25 21 17 15 14 11 7 9 11 10 11 13 19 32 35 32 34 37 41 46 44 46 48 48
Wind_Direction
14 23 27 20 10 26 24 21 25 8 346 327 346 348 343 334 318 320 312 308 297 306 311 313 313 316 321 321 326 326 330 327 329 332 336 341 343 340 333 334 332 329 327 327 325 323 322 318 313 307 303 297 295 295 290 284 287 294 287 282 280 279 281 272 260 259 260 263 264 264 269 263 255 255 262 260 239 233 229 222 219 214 216 214 208
13 25 34 27 11 29 28 28 32 29 27 5 2 344 337 340 331 333 320 307 302 299 293 294 297 301 303 303 308 308 307 306 309 312 314 317 327 325 317 321 325 329 326 325 322 319 319 318 316 312 309 302 295 291 290 284 281 282 280 279 279 279 280 277 269 265 264 262 263 262 265 263 258 258 268 268 243 231 231 224 220 218 218 216 211
29 31 33 29 27 32 31 33 36 39 36 31 25 12 7 360 349 348 343 328 320 319 309 303 300 299 299 299 301 299 297 298 298 300 302 304 311 309 305 308 313 320 319 320 319 316 316 316 314 311 309 306 301 294 289 286 281 276 274 275 276 278 278 279 276 269 264 262 262 260 264 262 257 261 266 265 246 232 232 227 222 222 222 218 213
41 43 40 38 42 38 34 36 39 42 41 42 36 29 27 22 14 1 358 352 342 336 326 323 315 313 313 312 310 306 303 303 298 295 297 297 301 301 301 301 303 306 307 313 314 312 313 312 311 309 308 305 302 300 298 293 285 278 273 273 274 276 278 281 279 274 266 262 261 258 261 260 257 266 266 257 245 232 234 231 223 223 222 218 214
48 52 52 51 52 47 41 40 43 43 44 45 41 37 32 28 25 17 15 12 9 360 347 343 332 325 322 322 320 314 311 309 305 304 303 299 301 302 301 301 303 303 302 306 307 308 309 310 310 308 307 306 303 302 304 305 299 287 276 272 271 271 276 279 277 274 270 262 259 257 258 258 258 266 265 253 242 231 233 231 223 220 218 216 215
55 58 58 59 58 53 47 45 47 47 47 45 44 43 40 39 33 29 25 23 24 19 13 8 359 350 339 338 335 328 323 318 313 311 310 306 304 302 301 301 302 303 301 301 301 302 303 304 305 306 307 306 305 300 302 307 308 301 286 275 271 268 270 276 275 273 272 263 257 257 255 256 257 259 259 250 238 227 229 229 221 219 215 215 215
62 65 64 64 62 56 53 49 49 50 51 50 50 48 47 46 42 37 31 30 28 25 25 20 15 11 3 358 354 348 343 339 331 323 319 315 312 309 305 303 301 302 302 299 298 299 298 299 299 302 304 301 299 297 299 303 305 306 300 286 275 270 265 269 274 272 271 264 256 256 255 255 255 255 254 248 238 226 227 225 217 218 215 213 214
70 72 71 70 65 60 59 55 53 53 53 53 52 51 51 48 45 42 36 34 29 27 27 23 20 16 10 4 2 359 352 351 346 340 335 327 322 318 314 310 305 305 304 300 299 298 296 297 297 298 298 298 295 294 294 295 295 297 301 297 286 275 264 261 270 271 270 265 256 253 255 256 255 253 252 248 238 227 224 221 216 217 215 212 213
74 74 74 74 69 66 65 62 60 58 56 54 54 53 52 50 47 44 40 37 33 30 28 25 22 17 11 3 2 0 353 351 348 347 345 339 334 328 323 317 313 310 306 302 299 298 296 295 295 296 294 294 293 294 293 292 291 290 292 295 293 286 272 261 264 269 268 267 260 253 253 255 255 252 251 249 239 228 222 218 215 216 215 212 213
75 73 73 74 71 70 69 68 66 63 60 58 57 56 54 52 49 45 42 38 35 31 28 27 23 19 13 7 3 0 357 353 351 350 346 343 341 337 332 326 321 316 312 308 302 298 298 297 294 294 293 292 290 289 290 290 291 291 288 288 289 289 284 270 262 265 265 266 263 256 252 253 253 251 249 248 240 230 224 219 215 216 214 212 214
74 71 70 71 71 70 70 69 68 66 64 61 58 57 55 53 51 48 45 41 38 33 29 25 21 17 12 8 4 2 0 357 354 351 346 342 340 339 337 333 325 319 316 312 306 302 301 302 297 294 293 291 289 285 285 286 288 289 287 285 283 281 285 281 267 263 264 265 263 258 253 251 251 250 247 246 243 233 227 222 217 217 215 213 215
71 69 67 67 68 67 67 67 67 66 64 63 60 57 54 52 51 48 46 44 40 37 33 28 21 16 11 6 3 1 0 358 356 353 348 343 341 339 337 335 328 320 316 311 307 305 306 305 300 297 295 292 291 288 285 284 284 286 286 284 283 279 280 283 276 265 263 264 263 260 255 251 248 249 247 243 243 237 229 226 221 220 219 217 216
70 66 64 63 63 63 62 62 61 62 61 60 59 56 54 51 49 46 44 41 38 36 33 30 25 20 15 10 5 1 359 358 356 353 349 344 343 342 338 335 330 325 320 315 312 309 307 305 302 301 299 295 293 292 289 286 283 282 284 284 283 281 279 280 278 270 263 261 262 261 258 253 248 247 246 242 241 240 232 228 225 223 222 221 219
71 66 64 63 62 61 59 58 57 57 56 55 55 53 51 48 47 44 42 40 36 33 30 27 24 21 18 15 11 8 3 0 356 352 347 342 341 338 332 330 325 323 324 322 320 315 310 307 304 303 300 297 294 293 292 289 285 283 283 284 283 281 279 277 275 273 267 262 260 261 260 257 252 248 246 242 238 238 234 229 227 226 223 222 222
72 67 64 63 62 60 59 58 55 54 54 53 52 49 47 45 43 41 39 37 34 31 28 25 21 18 16 14 11 9 7 4 360 354 349 345 342 336 332 333 324 317 318 317 318 317 314 312 307 303 299 295 291 290 291 288 286 286 285 284 283 281 279 275 272 271 269 266 262 259 260 258 256 250 247 243 237 236 235 231 228 227 225 223 223
74 69 65 63 60 58 57 56 55 54 52 50 50 48 45 42 40 38 36 33 31 29 26 23 20 18 14 11 8 6 4 2 0 357 354 350 347 341 338 338 334 327 321 317 318 316 315 315 312 307 301 296 292 288 288 287 285 285 285 282 281 280 279 275 270 269 269 268 265 260 258 258 257 252 247 243 239 236 235 235 231 229 227 225 224
78 72 65 61 58 55 54 54 53 52 50 48 47 46 43 41 39 36 34 31 29 27 25 22 19 17 13 10 7 4 2 360 358 356 354 351 348 345 342 342 340 336 332 327 322 316 312 312 313 312 305 299 296 291 287 285 285 285 284 282 280 278 278 276 271 269 269 269 267 263 259 257 255 254 249 243 240 237 235 237 235 232 229 227 224
79 74 67 61 57 53 52 52 51 50 48 46 44 44 42 40 38 36 34 31 29 26 24 22 19 17 13 10 7 3 1 359 357 354 353 350 347 344 343 344 341 337 334 331 327 321 315 310 309 310 307 302 297 294 291 286 284 285 285 281 279 277 276 276 273 271 270 268 266 265 262 258 254 253 251 245 240 238 237 238 238 235 232 229 224
79 75 70 63 57 53 52 51 50 48 45 44 43 42 41 38 37 35 33 31 29 27 24 22 19 16 14 11 7 4 1 358 355 353 352 350 347 344 342 342 340 337 333 331 330 327 323 317 311 309 309 308 302 296 292 288 283 282 283 282 279 278 276 275 274 273 270 266 264 263 263 262 256 252 252 248 243 239 239 239 238 236 234 231 226
77 74 70 64 59 54 51 51 49 46 43 43 41 40 39 36 35 34 32 30 27 25 23 21 18 16 14 11 9 6 3 0 357 354 351 349 347 346 343 342 339 336 333 331 329 328 327 323 318 313 310 310 307 300 293 287 282 280 280 280 278 277 274 273 273 272 270 267 263 261 261 264 261 254 251 250 247 243 242 241 239 236 233 231 229
73 70 67 63 58 53 50 49 47 45 41 40 38 36 35 32 30 29 28 26 25 23 20 19 16 15 13 11 9 7 5 2 360 356 353 350 347 346 344 343 341 337 334 331 329 327 327 324 321 318 314 310 308 305 300 292 285 282 280 278 277 275 272 272 273 272 270 267 264 260 260 262 261 257 253 251 250 247 245 244 240 236 232 231 230
69 67 63 58 54 50 47 44 43 42 38 36 35 32 30 28 25 24 23 21 20 19 17 16 14 13 12 10 9 6 5 2 0 358 354 352 349 346 344 343 341 338 336 333 331 328 326 324 322 319 316 313 310 308 306 303 295 288 283 280 277 274 273 273 272 269 269 267 264 261 260 260 259 258 255 252 251 250 248 245 242 237 234 231 229
69 66 60 54 50 46 42 39 38 35 32 31 29 28 26 23 21 19 19 18 16 15 14 13 12 11 9 8 7 4 2 0 359 357 355 353 351 348 346 344 341 338 336 334 332 330 327 323 321 319 317 314 313 311 310 309 306 299 293 287 283 279 278 276 271 267 267 266 265 263 261 259 259 257 256 254 252 250 249 247 243 238 234 232 229
75 70 61 54 50 45 42 38 33 29 26 26 24 23 21 18 17 16 15 13 12 12 11 11 11 11 9 7 5 3 0 359 357 355 354 352 350 349 347 345 342 340 337 334 332 331 328 324 322 320 318 317 314 313 312 310 308 307 302 295 290 286 283 279 273 268 266 266 264 263 262 261 259 258 255 254 254 251 249 247 244 240 236 233 229
85 79 66 57 51 47 42 39 33 27 24 23 23 21 19 16 15 15 13 11 10 10 9 9 10 10 9 6 3 2 359 358 356 354 353 351 349 347 345 343 341 339 337 335 333 331 329 327 324 322 320 319 317 315 313 311 309 307 305 300 293 288 284 279 273 268 266 266 265 263 262 262 261 259 256 255 254 252 250 248 245 242 238 235 231
92 84 69 60 56 52 44 41 35 30 28 25 25 21 19 18 16 15 13 12 11 10 10 9 9 9 8 5 2 360 358 357 355 354 352 349 347 344 342 340 337 335 335 334 332 331 329 327 326 324 322 320 317 315 313 311 309 306 304 301 295 289 284 279 274 269 267 266 265 263 262 262 261 260 258 256 254 252 250 249 246 242 239 236 235
100 93 79 69 61 57 49 47 40 34 33 29 26 23 23 22 19 17 13 11 11 11 11 11 11 10 8 5 2 359 357 355 354 352 349 345 342 340 338 335 333 331 331 330 329 329 327 325 324 324 322 320 317 314 313 310 308 306 302 299 297 292 286 282 277 271 267 266 266 264 262 261 261 261 258 256 255 253 250 248 246 243 240 237 234
117 113 99 82 69 65 58 52 44 40 36 31 29 27 27 24 20 17 13 10 11 13 13 13 13 11 9 7 4 1 358 355 352 348 344 340 337 334 332 331 330 329 329 327 326 326 324 322 321 321 320 318 315 313 312 309 307 306 303 299 297 293 289 284 278 271 266 265 266 264 262 260 260 260 259 256 254 254 252 249 247 244 240 236 234
137 133 116 97 81 71 63 54 44 44 39 33 32 30 28 24 20 15 10 9 12 16 15 14 13 12 10 8 6 3 0 357 353 349 344 342 339 337 334 330 327 326 326 324 323 323 321 320 319 318 317 314 312 310 309 308 307 306 304 301 297 295 291 286 280 277 272 266 265 264 262 260 260 259 259 258 254 253 253 251 248 246 243 238 236
149 141 131 121 95 80 70 55 45 44 38 35 34 32 29 24 20 11 6 10 15 18 16 14 13 13 11 10 9 5 3 1 357 354 351 349 347 345 341 336 331 328 325 322 320 318 317 316 315 314 313 312 309 307 305 304 304 304 303 301 298 296 294 289 283 280 277 270 264 263 262 260 260 259 259 259 256 253 251 251 249 247 244 241 238
156 152 148 145 120 106 77 58 51 47 40 39 39 36 30 24 17 8 7 13 17 17 14 13 14 14 13 10 8 6 4 3 360 358 355 351 348 345 342 338 335 332 328 323 319 316 312 310 310 310 309 308 306 304 302 300 299 300 300 299 298 297 294 291 286 281 279 273 265 262 261 260 259 259 258 258 257 254 250 249 249 247 245 242 240
165 162 162 155 141 128 91 78 64 52 44 41 41 36 26 20 14 8 10 15 16 13 11 13 15 15 13 10 7 6 4 2 360 358 354 349 344 340 338 337 336 333 328 322 318 315 312 308 306 305 305 305 303 301 300 297 295 295 295 296 296 296 293 291 288 282 279 277 270 263 260 260 259 258 258 256 256 255 251 249 248 247 245 244 241
173 171 170 161 154 152 135 106 76 59 46 36 33 29 18 14 11 7 9 13 12 8 9 14 15 15 12 9 7 5 3 2 359 356 352 346 341 339 337 336 334 332 328 324 320 317 314 311 309 305 303 302 301 299 298 295 292 292 291 292 293 293 292 291 288 285 280 278 274 268 261 258 258 257 256 256 255 254 251 249 248 248 245 244 242
177 178 174 166 171 174 158 122 87 64 39 21 20 21 13 9 7 6 6 8 7 5 10 14 14 13 10 8 6 3 2 360 357 353 349 345 342 340 338 335 333 332 331 330 325 319 314 310 310 308 304 301 298 297 296 294 291 290 288 288 289 289 291 290 287 285 282 278 275 271 263 257 256 255 254 255 255 253 251 249 248 249 247 244 243
180 181 179 171 176 176 162 134 92 56 30 12 12 16 9 4 1 2 3 3 4 4 9 12 12 10 7 5 3 1 359 357 355 351 347 345 341 338 336 334 333 332 332 331 328 323 317 312 310 308 306 302 297 295 293 291 291 289 287 286 286 286 288 288 287 285 282 280 276 271 266 260 254 252 252 252 254 254 251 248 247 248 247 244 243
184 184 180 173 178 175 161 132 80 41 20 7 9 11 4 359 358 0 1 1 2 3 6 9 9 8 4 2 359 357 356 355 353 349 346 344 341 338 336 334 332 331 329 328 326 322 318 313 309 308 305 302 299 296 292 289 288 287 287 285 283 284 285 285 285 284 282 281 277 272 269 264 255 250 250 249 251 253 252 249 247 246 246 244 242
187 187 180 175 180 169 156 111 63 27 13 5 4 4 359 356 357 358 358 357 358 359 3 7 9 6 3 359 355 354 353 352 350 348 345 343 341 339 338 336 333 330 327 324 320 318 316 311 308 306 303 301 299 297 294 291 288 286 285 284 282 281 282 282 282 283 282 280 276 272 269 265 257 250 248 248 249 250 250 249 247 247 246 245 242
189 189 183 177 178 161 141 82 47 18 6 360 359 358 355 355 354 354 353 353 356 358 0 6 7 4 360 355 351 350 350 349 348 346 344 342 341 338 336 336 331 326 322 319 317 317 316 312 309 306 301 298 296 294 293 292 289 286 283 282 281 280 280 279 279 280 280 277 275 272 268 264 259 252 247 245 246 247 247 248 247 247 247 245 243
190 190 188 180 173 157 123 66 29 10 1 355 356 353 352 352 350 351 351 351 354 356 359 3 4 0 356 351 347 348 347 346 345 344 343 340 338 335 332 330 325 320 316 314 314 314 313 311 309 306 302 297 292 291 291 291 288 285 282 279 279 279 279 278 277 276 276 275 272 271 267 263 259 254 249 244 243 243 244 245 245 244 246 245 243
190 190 189 185 174 156 108 50 16 2 355 352 352 348 350 350 346 346 347 350 353 354 358 360 359 356 352 348 345 346 345 343 342 341 339 336 333 329 325 321 317 314 312 310 309 308 309 309 309 307 303 299 293 289 290 291 287 283 281 279 279 278 277 276 275 273 272 272 270 268 265 261 257 254 249 243 241 241 241 242 242 242 244 244 243
189 192 191 189 183 157 80 33 6 355 350 347 345 344 346 346 342 340 342 348 352 351 354 354 352 350 348 346 344 343 342 340 338 337 335 332 327 322 317 314 314 314 311 307 305 306 306 307 307 305 302 299 294 291 292 292 288 283 281 281 279 277 276 275 273 271 269 269 268 265 262 259 255 252 249 244 240 239 239 239 240 240 241 242 242
189 194 195 194 190 188 359 11 355 349 343 335 334 338 342 342 337 335 338 345 350 348 349 349 346 344 343 342 341 339 337 335 334 332 329 325 320 317 315 315 316 316 312 309 306 306 306 306 306 304 301 296 291 290 293 290 284 281 283 284 280 278 277 274 271 269 267 267 265 260 257 255 253 251 248 244 241 237 237 238 238 238 238 240 240
191 194 197 198 195 211 307 347 343 334 328 321 326 333 338 341 337 336 339 343 346 344 344 347 344 338 337 337 336 335 332 330 328 326 322 318 316 315 316 316 315 314 311 309 307 306 305 303 303 302 300 295 290 289 290 287 281 281 281 277 279 283 281 275 269 267 268 270 268 260 254 252 250 251 249 244 240 236 235 236 236 236 236 237 237
191 194 199 201 202 213 278 313 322 318 315 316 324 331 337 340 338 340 343 343 342 340 341 344 339 331 331 331 331 330 328 324 322 321 317 314 313 314 314 312 311 310 308 305 304 303 301 300 299 297 295 295 294 292 288 284 282 283 279 269 276 279 276 276 278 277 276 277 276 271 262 256 250 248 247 243 240 237 236 235 235 235 234 234 235
192 196 201 204 208 216 260 293 302 305 310 318 325 332 339 340 341 344 346 346 343 341 341 339 334 329 328 328 328 327 325 322 320 319 315 313 312 313 312 310 310 308 305 302 300 299 299 296 295 291 288 290 293 292 288 282 279 279 276 272 274 266 267 285 306 289 281 278 279 282 281 273 263 252 245 242 240 237 235 234 234 234 233 232 232
195 198 202 207 211 220 254 285 294 305 314 322 327 334 340 342 345 346 346 344 338 335 335 331 327 326 325 325 325 325 323 319 318 317 315 314 313 313 312 309 308 306 304 302 299 297 297 295 291 287 284 284 287 287 286 283 280 276 272 268 267 264 269 290 305 290 287 283 277 281 284 280 277 269 253 242 237 235 233 232 232 232 231 230 229
196 196 202 209 214 225 253 281 295 309 318 325 329 335 342 344 345 344 341 335 324 321 325 322 319 319 319 320 319 319 318 316 315 315 316 316 314 312 310 307 305 304 302 300 297 296 295 293 290 286 283 282 281 280 282 283 281 275 271 270 270 266 264 268 269 277 292 289 279 279 283 280 277 279 274 255 241 234 232 231 230 230 230 228 228
194 194 201 209 214 226 252 281 297 310 319 326 331 336 342 342 340 338 336 331 320 318 321 319 316 316 316 316 315 314 314 314 314 316 317 316 314 311 308 305 303 302 300 297 294 293 292 292 290 286 283 280 276 275 278 279 276 274 276 279 277 272 265 260 257 258 271 287 286 283 284 284 279 276 281 279 260 242 232 230 229 228 228 227 226
192 195 202 208 214 226 253 278 294 309 321 327 332 337 341 338 335 334 332 327 321 320 321 317 316 317 314 313 313 312 314 314 314 316 316 315 313 310 307 304 301 300 298 294 292 291 289 289 289 286 283 279 275 273 274 274 272 273 276 278 278 276 270 259 253 251 249 262 281 287 289 292 289 279 278 283 281 261 238 229 229 227 225 225 223
191 197 201 205 214 226 253 277 292 310 322 328 332 336 338 334 332 334 328 322 321 323 321 318 317 317 314 312 313 313 315 316 317 316 313 312 310 308 305 302 299 297 295 293 291 289 287 286 286 285 282 279 276 273 271 270 270 270 270 268 269 272 270 260 249 244 246 250 263 275 282 288 290 286 281 277 284 281 254 231 226 226 224 222 222
191 196 199 206 214 227 254 277 293 313 322 328 331 332 334 332 333 334 325 320 323 324 319 316 316 315 311 311 312 313 315 316 316 315 313 312 310 307 304 301 299 296 293 292 290 289 288 287 286 284 282 279 276 274 271 269 269 268 265 263 263 264 263 260 250 243 244 244 256 268 273 275 276 279 281 278 279 286 274 244 226 222 221 219 220